When you browse on this site, cookies collect data to enhance your experience and personalize the content and advertising you see.
Visit our Privacy Policy to learn more. By continuing to use the site, you agree to this use of cookies and data.
  • In Denmark
  • List of Countries
  • For 7 days
  • Water Temperature
  • Weather Map
  • Weather Widgets
  • user-avatar
    Login

    Hourly Weather Hlopovo

    Today, 5 June, Friday

    Time Temperature Precipitation Wind Pressure Humidity
    00:00 +10°C° 0 mm 3 mps 738 mmHg 94%
    01:00 +10°C° 0 mm 3 mps 738 mmHg 94%
    02:00 +10°C° 0 mm 3 mps 738 mmHg 94%
    03:00 +10°C° 0 mm 3 mps 738 mmHg 95%
    04:00 +10°C° 0 mm 3 mps 738 mmHg 94%
    05:00 +11°C° 0 mm 4 mps 738 mmHg 92%
    06:00 +11°C° 0 mm 4 mps 738 mmHg 91%
    07:00 +13°C° 0.1 mm 4 mps 739 mmHg 87%
    08:00 +14°C° 0.1 mm 5 mps 739 mmHg 84%
    09:00 +15°C° 0.1 mm 6 mps 739 mmHg 81%
    10:00 +16°C° 0.5 mm 6 mps 739 mmHg 78%
    11:00 +17°C° 0.5 mm 7 mps 738 mmHg 75%
    12:00 +18°C° 0.5 mm 8 mps 738 mmHg 73%
    13:00 +17°C° 0.6 mm 8 mps 738 mmHg 75%
    14:00 +17°C° 0.6 mm 8 mps 738 mmHg 76%
    15:00 +17°C° 0.6 mm 8 mps 738 mmHg 78%
    16:00 +15°C° 0.9 mm 7 mps 738 mmHg 83%
    17:00 +14°C° 0.9 mm 7 mps 738 mmHg 87%
    18:00 +13°C° 0.9 mm 6 mps 738 mmHg 91%
    19:00 +13°C° 0.3 mm 5 mps 738 mmHg 92%
    20:00 +12°C° 0.3 mm 4 mps 738 mmHg 93%
    21:00 +12°C° 0.3 mm 3 mps 738 mmHg 94%
    22:00 +12°C° 0.1 mm 3 mps 738 mmHg 95%
    23:00 +11°C° 0.1 mm 3 mps 739 mmHg 96%

    Tomorrow, 6 June, Saturday

    Time Temperature Precipitation Wind Pressure Humidity
    00:00 +10°C° 0.1 mm 3 mps 739 mmHg 96%
    01:00 +10°C° 0 mm 3 mps 739 mmHg 97%
    02:00 +10°C° 0 mm 2 mps 739 mmHg 97%
    03:00 +10°C° 0 mm 2 mps 739 mmHg 97%
    04:00 +12°C° 0 mm 2 mps 740 mmHg 97%
    05:00 +13°C° 0 mm 2 mps 740 mmHg 97%
    06:00 +13°C° 0 mm 2 mps 740 mmHg 97%
    07:00 +14°C° 0 mm 2 mps 740 mmHg 95%
    08:00 +15°C° 0 mm 2 mps 740 mmHg 93%
    09:00 +16°C° 0 mm 3 mps 741 mmHg 91%
    10:00 +17°C° 0 mm 3 mps 741 mmHg 88%
    11:00 +19°C° 0 mm 3 mps 741 mmHg 85%
    12:00 +20°C° 0 mm 2 mps 741 mmHg 82%
    13:00 +21°C° 0.1 mm 3 mps 741 mmHg 80%
    14:00 +21°C° 0.1 mm 3 mps 741 mmHg 79%
    15:00 +22°C° 0.1 mm 3 mps 741 mmHg 77%
    16:00 +22°C° 0.1 mm 3 mps 741 mmHg 78%
    17:00 +22°C° 0.1 mm 3 mps 741 mmHg 80%
    18:00 +24°C° 0.1 mm 3 mps 741 mmHg 81%
    19:00 +21°C° 0.6 mm 2 mps 741 mmHg 84%
    20:00 +20°C° 0.6 mm 2 mps 741 mmHg 87%
    21:00 +19°C° 0.6 mm 2 mps 742 mmHg 90%
    22:00 +19°C° 0 mm 2 mps 742 mmHg 91%
    23:00 +18°C° 0 mm 2 mps 742 mmHg 92%

    Day after tomorrow, 7 June, Sunday

    Time Temperature Precipitation Wind Pressure Humidity
    00:00 +18°C° 0 mm 2 mps 742 mmHg 93%
    01:00 +17°C° 0 mm 2 mps 742 mmHg 93%
    02:00 +17°C° 0 mm 2 mps 743 mmHg 93%
    03:00 +17°C° 0 mm 2 mps 743 mmHg 94%
    04:00 +17°C° 0 mm 2 mps 743 mmHg 93%
    05:00 +18°C° 0 mm 2 mps 743 mmHg 93%
    06:00 +19°C° 0 mm 1 mps 743 mmHg 93%
    07:00 +20°C° 0 mm 1 mps 744 mmHg 90%
    08:00 +21°C° 0 mm 1 mps 744 mmHg 87%
    09:00 +21°C° 0 mm 2 mps 744 mmHg 84%
    10:00 +24°C° 0.8 mm 2 mps 744 mmHg 80%
    11:00 +25°C° 0.8 mm 2 mps 744 mmHg 77%
    12:00 +26°C° 0.8 mm 2 mps 744 mmHg 74%
    13:00 +26°C° 1.4 mm 2 mps 744 mmHg 72%
    14:00 +26°C° 1.4 mm 2 mps 744 mmHg 70%
    15:00 +27°C° 1.4 mm 1 mps 744 mmHg 68%
    16:00 +26°C° 0.3 mm 1 mps 744 mmHg 69%
    17:00 +26°C° 0.3 mm 1 mps 744 mmHg 71%
    18:00 +26°C° 0.3 mm 1 mps 744 mmHg 73%
    19:00 +25°C° 0 mm 1 mps 744 mmHg 78%
    20:00 +23°C° 0 mm 1 mps 744 mmHg 83%
    21:00 +21°C° 0 mm 1 mps 744 mmHg 87%
    22:00 +20°C° 0 mm 2 mps 744 mmHg 89%
    23:00 +19°C° 0 mm 2 mps 744 mmHg 90%

    8 June, Monday

    Time Temperature Precipitation Wind Pressure Humidity
    00:00 +19°C° 0 mm 2 mps 744 mmHg 91%
    01:00 +18°C° 0 mm 2 mps 744 mmHg 92%
    02:00 +19°C° 0 mm 1 mps 745 mmHg 92%
    03:00 +19°C° 0 mm 1 mps 745 mmHg 92%
    04:00 +19°C° 0 mm 1 mps 745 mmHg 92%
    05:00 +20°C° 0 mm 1 mps 745 mmHg 91%
    06:00 +20°C° 0 mm 1 mps 745 mmHg 91%
    07:00 +20°C° 0 mm 2 mps 745 mmHg 88%
    08:00 +23°C° 0 mm 2 mps 745 mmHg 85%
    09:00 +24°C° 0 mm 3 mps 745 mmHg 82%
    10:00 +24°C° 0.4 mm 3 mps 745 mmHg 81%
    11:00 +25°C° 0.4 mm 4 mps 745 mmHg 79%
    12:00 +26°C° 0.4 mm 5 mps 745 mmHg 78%
    13:00 +26°C° 0.2 mm 5 mps 745 mmHg 76%
    14:00 +26°C° 0.2 mm 5 mps 745 mmHg 75%
    15:00 +26°C° 0.2 mm 5 mps 745 mmHg 74%
    16:00 +25°C° 0.1 mm 4 mps 745 mmHg 75%
    17:00 +25°C° 0.1 mm 4 mps 744 mmHg 77%
    18:00 +25°C° 0.1 mm 4 mps 744 mmHg 79%
    19:00 +22°C° 0 mm 3 mps 745 mmHg 83%
    20:00 +21°C° 0 mm 3 mps 745 mmHg 87%
    21:00 +19°C° 0 mm 3 mps 745 mmHg 91%
    22:00 +19°C° 0 mm 3 mps 745 mmHg 92%
    23:00 +18°C° 0 mm 3 mps 745 mmHg 93%

    9 June, Tuesday

    Time Temperature Precipitation Wind Pressure Humidity
    00:00 +17°C° 0 mm 3 mps 745 mmHg 94%
    01:00 +17°C° 0 mm 3 mps 745 mmHg 94%
    02:00 +17°C° 0 mm 2 mps 745 mmHg 94%
    03:00 +16°C° 0 mm 2 mps 745 mmHg 95%
    04:00 +17°C° 0 mm 3 mps 745 mmHg 94%
    05:00 +17°C° 0 mm 3 mps 746 mmHg 94%
    06:00 +17°C° 0 mm 3 mps 746 mmHg 93%
    07:00 +18°C° 0 mm 3 mps 746 mmHg 90%
    08:00 +20°C° 0 mm 4 mps 746 mmHg 86%
    09:00 +21°C° 0 mm 4 mps 746 mmHg 82%
    10:00 +22°C° 0 mm 4 mps 746 mmHg 79%
    11:00 +23°C° 0 mm 5 mps 746 mmHg 76%
    12:00 +25°C° 0 mm 5 mps 746 mmHg 73%
    13:00 +24°C° 0 mm 6 mps 746 mmHg 71%
    14:00 +24°C° 0 mm 6 mps 746 mmHg 70%
    15:00 +24°C° 0 mm 6 mps 746 mmHg 69%
    16:00 +24°C° 0.1 mm 6 mps 746 mmHg 72%
    17:00 +23°C° 0.1 mm 5 mps 746 mmHg 76%
    18:00 +23°C° 0.1 mm 4 mps 745 mmHg 79%
    19:00 +21°C° 0.1 mm 4 mps 745 mmHg 82%
    20:00 +20°C° 0.1 mm 4 mps 746 mmHg 84%
    21:00 +18°C° 0.1 mm 4 mps 746 mmHg 87%
    22:00 +18°C° 0 mm 4 mps 746 mmHg 88%
    23:00 +17°C° 0 mm 3 mps 745 mmHg 88%

    10 June, Wednesday

    Time Temperature Precipitation Wind Pressure Humidity
    00:00 +16°C° 0 mm 3 mps 745 mmHg 88%
    01:00 +15°C° 0.1 mm 4 mps 746 mmHg 89%
    02:00 +15°C° 0.1 mm 5 mps 746 mmHg 89%
    03:00 +16°C° 0.1 mm 5 mps 746 mmHg 89%
    04:00 +16°C° 0.2 mm 5 mps 746 mmHg 87%
    05:00 +16°C° 0.2 mm 6 mps 746 mmHg 85%
    06:00 +17°C° 0.2 mm 6 mps 746 mmHg 83%
    07:00 +19°C° 0 mm 6 mps 746 mmHg 81%
    08:00 +20°C° 0 mm 6 mps 746 mmHg 80%
    09:00 +21°C° 0 mm 6 mps 745 mmHg 78%
    10:00 +22°C° 0 mm 6 mps 745 mmHg 76%
    11:00 +23°C° 0 mm 6 mps 745 mmHg 74%
    12:00 +24°C° 0 mm 6 mps 746 mmHg 71%
    13:00 +24°C° 0.4 mm 6 mps 745 mmHg 73%
    14:00 +24°C° 0.4 mm 6 mps 745 mmHg 75%
    15:00 +23°C° 0.4 mm 6 mps 744 mmHg 77%
    16:00 +23°C° 0.8 mm 5 mps 744 mmHg 79%
    17:00 +23°C° 0.8 mm 5 mps 744 mmHg 81%
    18:00 +23°C° 0.8 mm 4 mps 744 mmHg 83%
    19:00 +21°C° 0.6 mm 4 mps 744 mmHg 86%
    20:00 +20°C° 0.6 mm 4 mps 744 mmHg 89%
    21:00 +18°C° 0.6 mm 3 mps 744 mmHg 92%
    22:00 +18°C° 0.8 mm 3 mps 744 mmHg 93%
    23:00 +18°C° 0.8 mm 3 mps 744 mmHg 94%
    Show more